Regional Weather Roundup
Issued by NWS State College, PA

Home | Current Version | Previous Version | Graphics & Text | Print | Product List | Glossary Off
Versions: 1 2 3 4 5 6 7 8 9 10 11 12 13 14 15 16 17 18 19 20 21 22 23 24 25 26 27 28 29 30 31 32 33 34 35 36 37 38 39 40 41 42 43 44 45 46 47 48 49 50

000
ASUS41 KCTP 231603
RWRCTP

REGIONAL WEATHER ROUNDUP
NATIONAL WEATHER SERVICE STATE COLLEGE PA
1100 AM EST THU FEB 23 2017

Note: "fair" indicates few or no clouds below 12,000 feet with no
significant weather and/or obstructions to visibility.

* = STATION THAT DOES NOT REPORT PRECIPITATION /E.G. RAIN...SNOW...ETC/
    THUNDER OR FOG.

PAZ002>004-007>009-013>016-020>023-029>032-231700-
WESTERN PENNSYLVANIA

CITY           SKY/WX    TMP DP  RH WIND       PRES   REMARKS
ERIE           CLOUDY    63  54  72 SW14G23   29.72S
MEADVILLE      CLOUDY    58  53  84 S10       29.76F
FRANKLIN*      CLOUDY    57  52  82 SW13      29.80F
NEW CASTLE     CLOUDY    60  55  83 SW8       29.80F
BEAVER COUNTY  CLOUDY    59  54  82 SW9       29.81S
BUTLER*        CLOUDY    59  54  82 SW9G18    29.83S
PITTSBURGH INT CLOUDY    61  55  81 SW13      29.82S
PITTSBURGH     PTSUNNY   63  53  70 SW14G23   29.82F
INDIANA*       CLOUDY    63  55  77 W14G20    29.85F
LATROBE        PTSUNNY   63  55  77 SW12G23   29.85F
WASHINGTON CO* PTSUNNY   63  55  77 SW13G18   29.85F
$$

PAZ004>006-010>012-017>019-024>028-033>037-041-042-045-046-049>053-231700-
CENTRAL PENNSYLVANIA

CITY           SKY/WX    TMP DP  RH WIND       PRES   REMARKS
BRADFORD       CLOUDY    54  53  97 SW6       29.79F FOG
DUBOIS         CLOUDY    56  52  86 SW10      29.81S
CLEARFIELD       N/A    N/A N/A N/A MISG      29.82F
JOHNSTOWN      CLOUDY    60  54  80 SW14G21   29.85S
ALTOONA        CLOUDY    64  54  69 SW15      29.86S
STATE COLLEGE  CLOUDY    55  50  82 W5        29.84S
WILLIAMSPORT   PTSUNNY   53  41  63 SE3       29.83F
SELINSGROVE    SUNNY     59  49  69 S8        29.86F
FT INDIANTOWN  CLOUDY    48  48 100 CALM      29.89F FOG
CAPITAL CITY   MOSUNNY   56  48  74 E5        29.88F HAZE
HARRISBURG     CLOUDY    55  50  83 SE8       29.88F HAZE
YORK           SUNNY     63  54  72 SW6       29.87F
$$

PAZ038>040-043-044-047-048-054-055-060>062-067>071-231700-
EASTERN PENNSYLVANIA

CITY           SKY/WX    TMP DP  RH WIND       PRES   REMARKS
SCRANTON       SUNNY     61  47  59 SW10      29.84F
MOUNT POCONO   SUNNY     58  49  72 SW8       29.85S
ALLENTOWN      CLOUDY    50  45  83 W6        29.90S HAZE
QUAKERTOWN*    CLOUDY    52  52 100 SW7       29.90F
READING        CLOUDY    54  51  90 CALM      29.89S
LANCASTER      CLOUDY    53  52  96 CALM      29.89F FOG
COATESVILLE    MOSUNNY   54  54 100 VRB6      29.90F
POTTSTOWN      CLOUDY    52  51  97 VRB3      29.90F FOG
BLUE BELL      CLOUDY    52  52 100 SW3       29.89F
DOYLESTOWN     CLOUDY    52  51  97 SW6       29.88F
WILLOW GROVE   NOT AVBL
NORTH PHILA    CLOUDY    56  53  90 SW8       29.91F FOG
PHILADELPHIA   CLOUDY    54  53  97 SW9       29.92S FOG
$$




USA.gov is the U.S. government's official web portal to all federal, state and local government web resources and services.